Location: Roswell
(33.3943°N, 104.5230°W)
Time: 13:17:42
(UTC+00:00)

Vanguard 2 Rocket - Pass Details

Date: 16 November 2024
Orbit: 554 x 3296 km, 32.9° (Epoch: 30 November)

Event Time Altitude Azimuth Distance (km) Brightness Sun altitude
Rises 12:26:37 0° 231° (SW) 4,746 10.2 -13.6°
Reaches altitude 10° 12:29:17 10° 227° (SW) 4,061 9.9 -13.0°
Maximum altitude 12:40:49 60° 150° (SSE) 2,770 9.5 -10.7°
Drops below altitude 10° 12:59:07 10° 77° (ENE) 6,163 12.2 -7.1°
Sets 13:04:16 0° 75° (ENE) 7,272 12.6 -6.0°
